KLM737 LFRS-LFPG

Flight info

Callsign KLM737
Flight time 0h 44m
Altitude 24000
Route ANG UN741 KEPER
Aircraft B738/M-SDE2E3FGHIRWXY/LB1

Departure

Time 2026-05-05 21:46
Airport Nantes Atlantique Airport (LFRS)

Arrival

Time 2026-05-05 22:31
Airport Charles de Gaulle International Airport (LFPG)
Time Latitude Longitude Altitude Speed Heading
2026-05-05 21:26 47.15771 -1.60351 98 ft 0 kts 128°
2026-05-05 21:36 47.15779 -1.60364 99 ft 4 kts 129°
2026-05-05 21:36 47.15793 -1.60389 97 ft 4 kts 146°
2026-05-05 21:36 47.15817 -1.60401 96 ft 4 kts 176°
2026-05-05 21:37 47.15826 -1.60401 98 ft 1 kts 176°
2026-05-05 21:39 47.15788 -1.60413 99 ft 8 kts 202°
2026-05-05 21:39 47.15739 -1.60461 99 ft 8 kts 216°
2026-05-05 21:40 47.15693 -1.60509 99 ft 8 kts 212°
2026-05-05 21:40 47.15642 -1.60554 99 ft 9 kts 209°
2026-05-05 21:40 47.15588 -1.60596 102 ft 9 kts 211°
2026-05-05 21:40 47.15529 -1.60646 102 ft 11 kts 209°
2026-05-05 21:41 47.15451 -1.60707 101 ft 14 kts 207°
2026-05-05 21:41 47.15355 -1.60777 102 ft 16 kts 206°
2026-05-05 21:41 47.15251 -1.60862 99 ft 20 kts 207°
2026-05-05 21:41 47.15101 -1.60971 99 ft 22 kts 208°
2026-05-05 21:42 47.14988 -1.61054 100 ft 19 kts 206°
2026-05-05 21:42 47.14871 -1.61144 99 ft 19 kts 208°
2026-05-05 21:42 47.14757 -1.61231 97 ft 18 kts 206°
2026-05-05 21:42 47.14647 -1.61314 97 ft 17 kts 210°
2026-05-05 21:43 47.14537 -1.61399 97 ft 18 kts 208°
2026-05-05 21:43 47.14426 -1.61481 94 ft 18 kts 205°
2026-05-05 21:43 47.14311 -1.61573 90 ft 20 kts 211°
2026-05-05 21:43 47.14191 -1.61666 90 ft 19 kts 220°
2026-05-05 21:44 47.14141 -1.61841 90 ft 19 kts 270°
2026-05-05 21:44 47.14210 -1.61912 92 ft 7 kts 25°
2026-05-05 21:44 47.14215 -1.61908 91 ft 1 kts 27°
2026-05-05 21:44 47.14224 -1.61901 89 ft 2 kts 27°
2026-05-05 21:45 47.14231 -1.61896 91 ft 0 kts 26°
2026-05-05 21:45 47.14232 -1.61895 91 ft 0 kts 26°
2026-05-05 21:45 47.14235 -1.61893 90 ft 0 kts 26°
2026-05-05 21:45 47.14238 -1.61891 90 ft 1 kts 26°
2026-05-05 21:46 47.14451 -1.61737 95 ft 81 kts 27°
2026-05-05 21:46 47.15228 -1.61152 98 ft 165 kts 26°
2026-05-05 21:46 47.16355 -1.60201 631 ft 197 kts 33°
2026-05-05 21:46 47.17402 -1.58760 1400 ft 222 kts 53°
2026-05-05 21:47 47.18034 -1.56523 1906 ft 256 kts 78°
2026-05-05 21:47 47.17889 -1.53961 3126 ft 256 kts 107°
2026-05-05 21:47 47.16922 -1.51739 4227 ft 266 kts 136°
2026-05-05 21:47 47.15588 -1.49822 5167 ft 271 kts 120°
2026-05-05 21:48 47.15086 -1.47184 6176 ft 270 kts 92°
2026-05-05 21:48 47.14934 -1.44401 7115 ft 276 kts 94°
2026-05-05 21:48 47.14734 -1.41601 8031 ft 281 kts 94°
2026-05-05 21:48 47.14510 -1.38717 8986 ft 286 kts 96°
2026-05-05 21:49 47.14273 -1.35791 9972 ft 289 kts 96°
2026-05-05 21:49 47.14263 -1.32779 10525 ft 307 kts 78°
2026-05-05 21:49 47.15113 -1.29797 10839 ft 328 kts 55°
2026-05-05 21:49 47.16693 -1.27330 11559 ft 334 kts 38°
2026-05-05 21:50 47.18511 -1.25231 12455 ft 338 kts 36°
2026-05-05 21:50 47.20399 -1.23127 13351 ft 342 kts 36°
2026-05-05 21:50 47.22319 -1.21001 14142 ft 347 kts 36°
2026-05-05 21:50 47.24262 -1.18836 14913 ft 352 kts 37°
2026-05-05 21:51 47.26222 -1.16636 15715 ft 355 kts 36°
2026-05-05 21:51 47.28170 -1.14436 16510 ft 359 kts 37°
2026-05-05 21:51 47.30160 -1.12179 17289 ft 363 kts 37°
2026-05-05 21:51 47.32155 -1.09909 18244 ft 361 kts 37°
2026-05-05 21:52 47.36017 -1.05501 20476 ft 340 kts 38°
2026-05-05 21:52 47.37887 -1.03363 21345 ft 339 kts 38°
2026-05-05 21:52 47.39747 -1.01235 22152 ft 339 kts 38°
2026-05-05 21:53 47.41580 -0.99134 23125 ft 333 kts 38°
2026-05-05 21:53 47.43413 -0.97032 23686 ft 334 kts 38°
2026-05-05 21:53 47.45242 -0.94933 23922 ft 332 kts 38°
2026-05-05 21:53 47.47053 -0.92854 23911 ft 332 kts 38°
2026-05-05 21:54 47.48878 -0.90756 23926 ft 331 kts 38°
2026-05-05 21:54 47.50693 -0.88668 23929 ft 330 kts 38°
2026-05-05 21:54 47.52496 -0.86571 23929 ft 329 kts 41°
2026-05-05 21:54 47.53952 -0.83975 23930 ft 329 kts 60°
2026-05-05 21:55 47.54866 -0.80857 23936 ft 330 kts 68°
2026-05-05 21:55 47.55634 -0.77649 23931 ft 332 kts 69°
2026-05-05 21:55 47.56386 -0.74419 23928 ft 333 kts 69°
2026-05-05 21:55 47.57152 -0.71175 23929 ft 334 kts 69°
2026-05-05 21:56 47.57934 -0.67934 23927 ft 335 kts 69°
2026-05-05 21:56 47.58716 -0.64717 23926 ft 336 kts 69°
2026-05-05 21:56 47.59509 -0.61464 23911 ft 336 kts 69°
2026-05-05 21:56 47.60300 -0.58206 23916 ft 336 kts 69°
2026-05-05 21:57 47.61089 -0.54941 23921 ft 336 kts 69°
2026-05-05 21:57 47.61874 -0.51687 23922 ft 336 kts 69°
2026-05-05 21:57 47.62659 -0.48426 23919 ft 335 kts 69°
2026-05-05 21:57 47.63441 -0.45173 23916 ft 335 kts 69°
2026-05-05 21:58 47.64223 -0.41915 23918 ft 335 kts 69°
2026-05-05 21:58 47.65002 -0.38668 23919 ft 334 kts 69°
2026-05-05 21:58 47.65780 -0.35420 23917 ft 334 kts 69°
2026-05-05 21:58 47.66556 -0.32175 23920 ft 333 kts 69°
2026-05-05 21:59 47.67330 -0.28933 23920 ft 333 kts 69°
2026-05-05 21:59 47.68104 -0.25686 23920 ft 333 kts 69°
2026-05-05 21:59 47.68866 -0.22486 23920 ft 333 kts 69°
2026-05-05 21:59 47.69638 -0.19241 23920 ft 333 kts 69°
2026-05-05 22:00 47.70409 -0.15993 23919 ft 333 kts 69°
2026-05-05 22:00 47.71179 -0.12743 23919 ft 333 kts 69°
2026-05-05 22:00 47.71948 -0.09496 23923 ft 333 kts 69°
2026-05-05 22:00 47.72706 -0.06289 23925 ft 333 kts 69°
2026-05-05 22:01 47.73473 -0.03036 23928 ft 333 kts 69°
2026-05-05 22:01 47.74238 0.00210 23927 ft 333 kts 69°
2026-05-05 22:01 47.75005 0.03469 23925 ft 334 kts 69°
2026-05-05 22:01 47.75772 0.06734 23926 ft 335 kts 69°
2026-05-05 22:02 47.76280 0.08897 23928 ft 335 kts 69°
2026-05-05 22:02 47.77048 0.12177 23930 ft 336 kts 69°
2026-05-05 22:02 47.77816 0.15458 23925 ft 336 kts 69°
2026-05-05 22:02 47.78587 0.18753 23919 ft 337 kts 69°
2026-05-05 22:03 47.79604 0.23116 23913 ft 337 kts 69°
2026-05-05 22:03 47.80150 0.25326 23913 ft 337 kts 64°
2026-05-05 22:03 47.81454 0.28176 23891 ft 332 kts 46°
2026-05-05 22:03 47.83253 0.30330 23571 ft 331 kts 35°
2026-05-05 22:04 47.85122 0.32229 23280 ft 327 kts 34°
2026-05-05 22:04 47.86993 0.34118 22994 ft 323 kts 34°
2026-05-05 22:04 47.88842 0.36009 22733 ft 322 kts 35°
2026-05-05 22:04 47.90680 0.37915 22481 ft 321 kts 35°
2026-05-05 22:05 47.92508 0.39824 22231 ft 320 kts 35°
2026-05-05 22:05 47.94329 0.41731 21985 ft 319 kts 35°
2026-05-05 22:05 47.96155 0.43646 21747 ft 320 kts 35°
2026-05-05 22:05 47.97983 0.45563 21495 ft 321 kts 35°
2026-05-05 22:06 47.99790 0.47460 21253 ft 322 kts 35°
2026-05-05 22:06 48.01627 0.49391 21004 ft 323 kts 34°
2026-05-05 22:06 48.03468 0.51328 20740 ft 323 kts 34°
2026-05-05 22:06 48.05310 0.53268 20484 ft 324 kts 34°
2026-05-05 22:07 48.07150 0.55207 20241 ft 323 kts 34°
2026-05-05 22:07 48.08977 0.57135 19988 ft 320 kts 34°
2026-05-05 22:07 48.10795 0.59055 19745 ft 318 kts 34°
2026-05-05 22:07 48.12570 0.60931 19507 ft 315 kts 34°
2026-05-05 22:08 48.14357 0.62820 19270 ft 314 kts 34°
2026-05-05 22:08 48.16145 0.64712 19033 ft 313 kts 33°
2026-05-05 22:08 48.17936 0.66610 18800 ft 316 kts 34°
2026-05-05 22:08 48.19745 0.68528 18548 ft 320 kts 33°
2026-05-05 22:09 48.21540 0.70434 18300 ft 321 kts 33°
2026-05-05 22:09 48.23362 0.72369 18031 ft 320 kts 34°
2026-05-05 22:09 48.25184 0.74306 17760 ft 319 kts 34°
2026-05-05 22:09 48.26980 0.76219 17505 ft 314 kts 34°
2026-05-05 22:10 48.28760 0.78115 17238 ft 310 kts 34°
2026-05-05 22:10 48.30506 0.79976 17005 ft 306 kts 34°
2026-05-05 22:10 48.32219 0.81802 16780 ft 303 kts 34°
2026-05-05 22:10 48.33932 0.83647 16547 ft 303 kts 38°
2026-05-05 22:11 48.35288 0.86045 16297 ft 304 kts 60°
2026-05-05 22:11 48.36272 0.88880 16091 ft 308 kts 62°
2026-05-05 22:11 48.37253 0.91781 15853 ft 313 kts 62°
2026-05-05 22:11 48.38252 0.94714 15606 ft 315 kts 62°
2026-05-05 22:12 48.39261 0.97648 15359 ft 314 kts 62°
2026-05-05 22:12 48.40257 1.00533 15109 ft 313 kts 62°
2026-05-05 22:12 48.41262 1.03439 14864 ft 313 kts 62°
2026-05-05 22:12 48.42268 1.06356 14568 ft 315 kts 62°
2026-05-05 22:13 48.43277 1.09283 14281 ft 314 kts 63°
2026-05-05 22:13 48.44278 1.12192 13985 ft 310 kts 63°
2026-05-05 22:13 48.45265 1.15067 13689 ft 307 kts 63°
2026-05-05 22:13 48.46242 1.17912 13369 ft 304 kts 63°
2026-05-05 22:14 48.47205 1.20721 13073 ft 300 kts 63°
2026-05-05 22:14 48.48156 1.23496 12783 ft 296 kts 63°
2026-05-05 22:14 48.49084 1.26204 12503 ft 292 kts 63°
2026-05-05 22:14 48.50007 1.28905 12230 ft 288 kts 63°
2026-05-05 22:15 48.50921 1.31581 11966 ft 285 kts 63°
2026-05-05 22:15 48.51820 1.34210 11792 ft 279 kts 63°
2026-05-05 22:15 48.52713 1.36809 11651 ft 278 kts 63°
2026-05-05 22:15 48.53600 1.39390 11498 ft 278 kts 63°
2026-05-05 22:16 48.54495 1.41999 11362 ft 281 kts 63°
2026-05-05 22:16 48.55398 1.44634 11215 ft 284 kts 63°
2026-05-05 22:16 48.56303 1.47279 11059 ft 283 kts 63°
2026-05-05 22:16 48.57287 1.49837 10891 ft 282 kts 49°
2026-05-05 22:17 48.58802 1.51656 10721 ft 282 kts 29°
2026-05-05 22:17 48.60558 1.52981 10529 ft 282 kts 26°
2026-05-05 22:17 48.62340 1.54258 10326 ft 283 kts 26°
2026-05-05 22:17 48.64118 1.55534 10127 ft 281 kts 26°
2026-05-05 22:18 48.65866 1.56800 9917 ft 275 kts 26°
2026-05-05 22:18 48.67571 1.58048 9707 ft 269 kts 27°
2026-05-05 22:18 48.69236 1.59275 9505 ft 263 kts 27°
2026-05-05 22:18 48.70872 1.60485 9298 ft 259 kts 27°
2026-05-05 22:19 48.72483 1.61678 9129 ft 257 kts 26°
2026-05-05 22:19 48.74088 1.62886 8949 ft 258 kts 30°
2026-05-05 22:19 48.75386 1.64692 8729 ft 259 kts 54°
2026-05-05 22:19 48.76308 1.67048 8559 ft 260 kts 60°
2026-05-05 22:20 48.77164 1.69473 8348 ft 261 kts 61°
2026-05-05 22:20 48.78017 1.71914 8149 ft 262 kts 60°
2026-05-05 22:20 48.78874 1.74361 7948 ft 262 kts 60°
2026-05-05 22:20 48.79721 1.76812 7736 ft 261 kts 60°
2026-05-05 22:21 48.80569 1.79229 7525 ft 258 kts 60°
2026-05-05 22:21 48.81410 1.81583 7334 ft 256 kts 59°
2026-05-05 22:21 48.82254 1.83943 7131 ft 253 kts 59°
2026-05-05 22:21 48.83087 1.86282 6928 ft 252 kts 59°
2026-05-05 22:22 48.83918 1.88617 6738 ft 250 kts 59°
2026-05-05 22:22 48.84741 1.90935 6537 ft 249 kts 59°
2026-05-05 22:22 48.85559 1.93242 6342 ft 248 kts 59°
2026-05-05 22:22 48.86376 1.95548 6147 ft 247 kts 60°
2026-05-05 22:23 48.87179 1.97818 5949 ft 247 kts 59°
2026-05-05 22:23 48.88067 2.00037 5734 ft 244 kts 47°
2026-05-05 22:23 48.89273 2.01803 5557 ft 237 kts 41°
2026-05-05 22:23 48.90505 2.03434 5401 ft 231 kts 40°
2026-05-05 22:24 48.91673 2.05039 5343 ft 222 kts 41°
2026-05-05 22:24 48.92798 2.06614 5167 ft 218 kts 41°
2026-05-05 22:24 48.93888 2.08149 4995 ft 213 kts 41°
2026-05-05 22:24 48.94962 2.09670 4834 ft 208 kts 41°
2026-05-05 22:25 48.96017 2.11152 4676 ft 204 kts 41°
2026-05-05 22:25 48.97053 2.12612 4508 ft 202 kts 41°
2026-05-05 22:25 48.98076 2.14053 4338 ft 198 kts 41°
2026-05-05 22:25 48.99082 2.15476 4198 ft 198 kts 40°
2026-05-05 22:26 49.00121 2.16845 4059 ft 197 kts 41°
2026-05-05 22:26 49.00739 2.18710 4018 ft 208 kts 82°
2026-05-05 22:26 49.00753 2.20905 3998 ft 209 kts 82°
2026-05-05 22:26 49.00868 2.23106 3997 ft 207 kts 81°
2026-05-05 22:27 49.01002 2.25290 3975 ft 207 kts 81°
2026-05-05 22:27 49.01158 2.27527 3675 ft 214 kts 80°
2026-05-05 22:27 49.01289 2.29815 3360 ft 217 kts 81°
2026-05-05 22:27 49.01410 2.32099 3099 ft 214 kts 81°
2026-05-05 22:28 49.01519 2.34312 2799 ft 203 kts 80°
2026-05-05 22:28 49.01626 2.36375 2529 ft 191 kts 79°
2026-05-05 22:28 49.01727 2.38344 2274 ft 182 kts 78°
2026-05-05 22:28 49.01825 2.40221 2013 ft 172 kts 79°
2026-05-05 22:29 49.01916 2.41970 1799 ft 160 kts 78°
2026-05-05 22:29 49.02002 2.43604 1558 ft 151 kts 77°
2026-05-05 22:29 49.02082 2.45124 1390 ft 139 kts 77°
2026-05-05 22:29 49.02157 2.46536 1214 ft 135 kts 78°
2026-05-05 22:30 49.02233 2.47957 1009 ft 134 kts 81°
2026-05-05 22:30 49.02306 2.49374 806 ft 133 kts 79°
2026-05-05 22:30 49.02379 2.50750 639 ft 128 kts 82°
2026-05-05 22:30 49.02451 2.52118 474 ft 130 kts 81°
2026-05-05 22:31 49.02522 2.53468 360 ft 121 kts 85°
2026-05-05 22:31 49.02573 2.54380 352 ft 51 kts 86°
2026-05-05 22:31 49.02538 2.54618 361 ft 0 kts 118°
2026-05-05 22:31 49.02523 2.54692 353 ft 18 kts 105°
2026-05-05 22:32 49.02504 2.54809 359 ft 10 kts 103°
2026-05-05 22:32 49.02486 2.54914 353 ft 10 kts 104°
2026-05-05 22:32 49.02463 2.55011 358 ft 10 kts 126°
2026-05-05 22:32 49.02448 2.55109 353 ft 10 kts 87°
2026-05-05 22:33 49.02452 2.55209 360 ft 9 kts 86°
2026-05-05 22:33 49.02457 2.55306 353 ft 9 kts 85°
2026-05-05 22:33 49.02462 2.55401 353 ft 9 kts 84°
2026-05-05 22:33 49.02462 2.55493 360 ft 9 kts 98°
2026-05-05 22:34 49.02449 2.55580 359 ft 8 kts 122°
2026-05-05 22:34 49.02397 2.55610 357 ft 8 kts 174°
2026-05-05 22:34 49.02327 2.55619 354 ft 12 kts 174°
2026-05-05 22:34 49.02237 2.55634 353 ft 13 kts 174°
2026-05-05 22:35 49.02147 2.55648 353 ft 13 kts 182°
2026-05-05 22:35 49.02078 2.55577 357 ft 12 kts 242°
2026-05-05 22:35 49.02066 2.55449 357 ft 12 kts 266°
2026-05-05 22:35 49.02054 2.55322 353 ft 12 kts 265°
2026-05-05 22:36 49.02047 2.55199 361 ft 12 kts 265°
2026-05-05 22:36 49.02042 2.55078 353 ft 11 kts 266°
2026-05-05 22:36 49.02036 2.54963 353 ft 11 kts 263°
2026-05-05 22:36 49.02028 2.54850 356 ft 11 kts 264°
2026-05-05 22:37 49.02020 2.54739 353 ft 11 kts 264°
2026-05-05 22:37 49.02013 2.54615 353 ft 13 kts 265°
2026-05-05 22:37 49.02006 2.54470 353 ft 15 kts 266°
2026-05-05 22:37 49.01997 2.54312 353 ft 15 kts 263°
2026-05-05 22:38 49.01956 2.54174 353 ft 14 kts 229°
2026-05-05 22:38 49.01867 2.54132 361 ft 14 kts 181°
2026-05-05 22:38 49.01793 2.54058 360 ft 13 kts 230°
2026-05-05 22:38 49.01721 2.53992 358 ft 13 kts 176°
2026-05-05 22:39 49.01673 2.54041 357 ft 0 kts 134°